Belleville, IL

9:50 AM CDT on July 21, 2017 (GMT -0500)
Scott Air Force Base-Midamerica

Weather History for KBLV - November, 2013

Change the Weather History Date:

Sunday, November 24, 2013

  Actual Average Record
Temperature  
Mean Temperature 21 °F -  
Max Temperature 28 °F 51 °F 74 °F (1966)
Min Temperature 14 °F 31 °F 4 °F (1950)
Degree Days  
Heating Degree Days 44    
Moisture  
Dew Point 11 °F    
Average Humidity 65    
Maximum Humidity 86    
Minimum Humidity 36    
Precipitation  
Precipitation 0.00 in - - ()
Sea Level Pressure  
Sea Level Pressure 30.67 in    
Wind  
Wind Speed 4 mph (NE)    
Max Wind Speed 7 mph    
Max Gust Speed -    
Visibility 10 miles    
Events      
Averages and records for this station are not official NWS values.
T = Trace of Precipitation, MM = Missing Value Source: NWS Daily Summary

Daily Weather History Graph

Daily Weather History Graph

Search for Another Location

Airport or City:

Trip Planner

Search our weather history database for the weather conditions in past years. The results will help you decide how hot, cold, wet, or windy it might be!

Date:

Astronomy

Nov. 24, 2013 Rise Set
Actual Time 6:51 AM CST 4:40 PM CST
Civil Twilight 6:22 AM CST 5:09 PM CST
Nautical Twilight 5:49 AM CST 5:42 PM CST
Astronomical Twilight 5:17 AM CST 6:13 PM CST
Moon 11:04 PM CST (11/24) 11:41 AM CST (11/24)
Length of Visible Light 10h 47m
Length of Day
9h 49m
Waning Gibbous, 60% of the Moon is Illuminated
Nov 24
Waning Gibbous
Nov 25
Last Quarter
Dec 2
New
Dec 9
First Quarter
Dec 17
Full

Hourly Weather History & Observations

Time (CST) Temp. Windchill Dew Point Humidity Pressure Visibility Wind Dir Wind Speed Gust Speed Precip Events Conditions
12:58 AM 15.8 °F 8.6 °F 10.4 °F 79% 30.71 in 10.0 mi NNW 4.6 mph - N/A   Clear
1:58 AM 15.8 °F 8.6 °F 10.4 °F 79% 30.75 in 10.0 mi NNW 4.6 mph - N/A   Clear
2:58 AM 14.0 °F 8.2 °F 10.4 °F 86% 30.75 in 10.0 mi NNW 3.5 mph - N/A   Clear
3:58 AM 14.0 °F 8.2 °F 10.4 °F 86% 30.74 in 10.0 mi North 3.5 mph - N/A   Clear
4:58 AM 14.0 °F 8.2 °F 10.4 °F 86% 30.76 in 10.0 mi NNW 3.5 mph - N/A   Clear
5:58 AM 14.0 °F 6.5 °F 10.4 °F 86% 30.78 in 10.0 mi NNW 4.6 mph - N/A   Clear
6:58 AM 14.0 °F 6.5 °F 10.4 °F 86% 30.78 in 10.0 mi North 4.6 mph - N/A   Clear
7:58 AM 17.6 °F 9.3 °F 12.2 °F 79% 30.80 in 10.0 mi North 5.8 mph - N/A   Clear
8:58 AM 21.2 °F 12.6 °F 12.2 °F 68% 30.79 in 10.0 mi NNE 6.9 mph - N/A   Clear
9:58 AM 23.0 °F 14.7 °F 10.4 °F 59% 30.79 in 10.0 mi NE 6.9 mph - N/A   Clear
10:58 AM 24.8 °F 17.9 °F 10.4 °F 54% 30.75 in 10.0 mi NNE 5.8 mph - N/A   Clear
11:58 AM 26.6 °F - 6.8 °F 43% 30.71 in 10.0 mi Variable 2.3 mph - N/A   Clear
12:58 PM 28.4 °F 21.2 °F 6.8 °F 40% 30.67 in 10.0 mi ESE 6.9 mph - N/A   Clear
1:58 PM 28.4 °F 24.6 °F 5.0 °F 37% 30.65 in 10.0 mi Variable 3.5 mph - N/A   Clear
2:58 PM 28.9 °F - 5.0 °F 36% 30.63 in 10.0 mi NNE 2.3 mph - N/A   Clear
3:58 PM 26.6 °F - 6.8 °F 43% 30.63 in 10.0 mi East 2.3 mph - N/A   Clear
4:58 PM 26.6 °F - 8.6 °F 47% 30.61 in 10.0 mi ESE 2.3 mph - N/A   Clear
5:58 PM 24.6 °F - 11.3 °F 57% 30.60 in 10.0 mi SE 2.3 mph - N/A   Clear
6:58 PM 23.5 °F - 13.8 °F 66% 30.58 in 10.0 mi SSE 1.2 mph - N/A   Clear
7:58 PM 23.9 °F 19.5 °F 15.6 °F 71% 30.56 in 10.0 mi SE 3.5 mph - N/A   Clear
8:58 PM 23.5 °F 19.1 °F 14.2 °F 67% 30.55 in 10.0 mi SSE 3.5 mph - N/A   Partly Cloudy
9:58 PM 24.3 °F 18.4 °F 16.5 °F 72% 30.54 in 10.0 mi SSE 4.6 mph - N/A   Scattered Clouds
10:58 PM 25.3 °F - 15.6 °F 67% 30.51 in 10.0 mi SE 2.3 mph - N/A   Overcast
11:58 PM 25.9 °F 19.2 °F 16.7 °F 68% 30.48 in 10.0 mi SE 5.8 mph - N/A   Overcast